Погода в Середея

Россия / Новгородская область     57°55′55″N   33°08′23″E
темп.,
°C
ветер,
м/с
пор.,
м/с
влажн.,
%
обл.,
%
осадки,
мм/ч
давл.,
гПа
погр.,
м
6 мая, чт
чт600:00+4юв269725 0.0 1004135
03:00+4вюв3999100 0.2 1001236
06:00+7ююв41398100 4.8 998480
09:00+11ююв51585100 5.4 995555
12:00+13ю71679100 1.0 9921682
15:00+5з41297100 5.4 995688
18:00+6юз61295100 0.6 9971161
21:00+5юз61292100 1.0 999957
7 мая, пт
пт700:00+4юз61291100 0.1 10011131
03:00+4юз61290100 0.3 10021152
06:00+4юз5119074 0.1 1003860
09:00+6юз6147613 0.1 10041517
12:00+9юз6105892 0.6 10051916
15:00+9юз596252 1.4 10061627
18:00+9ююз3666100 0.3 1006938
21:00+6юв2787100 0.4 1006150
8 мая, сб
сб800:00+6ююв3894100 0.6 1005396
03:00+7юв41094100 4.3 10021119
06:00+7ююв51196100 2.2 999940
09:00+6юз3895100 2.5 1000545
12:00+10юз2376100 0.4 10001018
15:00+6зсз3697100 3.7 1000376
18:00+6сз4797100 9.2 1000843
21:00+4сз51298100 13.6 10011115
9 мая, вс
вс900:00+4зсз61298100 2.8 10031116
03:00+3зсз61297100 3.1 1006958
06:00+2зсз6139699 0.1 1010927
09:00+5зсз6118123 0.1 10131002
12:00+9з694410 0.0 10161894
15:00+11зсз58395 0.0 10181958
18:00+11з37495 0.0 10202199
21:00+5юз277481 0.0 1022143
10 мая, пн
пн1000:00+3ююз3107767 0.0 1024202
03:00+4ююз3127674 0.0 1025287
06:00+5ююз4137611 0.0 1026397
09:00+7ююз41269100 0.0 1026466
12:00+11ююз5116123 0.0 1027686
15:00+17юз574873 0.0 10261285
18:00+17ююз485639 0.0 10261217
21:00+11ю31276100 0.0 1025323